DLH2UE EDDS-EDDF

Flight info

Callsign DLH2UE
Flight time 0h 27m
Altitude 22000
Route ETASA2H ETASA T163 SPESA SPESA5B
Aircraft A320/M-SDE3FGHIRWY/LB1

Departure

Time 2026-05-04 15:56
Airport Stuttgart Airport (EDDS)

Arrival

Time 2026-05-04 16:24
Airport Frankfurt Main Airport (EDDF)
Time Latitude Longitude Altitude Speed Heading
2026-05-04 15:37 48.68785 9.19619 1289 ft 0 kts 164°
2026-05-04 15:53 48.68773 9.19624 1289 ft 2 kts 164°
2026-05-04 15:53 48.68741 9.19641 1287 ft 8 kts 152°
2026-05-04 15:53 48.68735 9.19732 1288 ft 12 kts 75°
2026-05-04 15:53 48.68761 9.19882 1289 ft 17 kts 86°
2026-05-04 15:54 48.68684 9.19987 1287 ft 12 kts 165°
2026-05-04 15:54 48.68680 9.19988 1286 ft 0 kts 165°
2026-05-04 15:55 48.68662 9.19996 1287 ft 8 kts 165°
2026-05-04 15:55 48.68593 9.20028 1288 ft 7 kts 150°
2026-05-04 15:55 48.68590 9.20096 1285 ft 6 kts 77°
2026-05-04 15:56 48.68609 9.20196 1286 ft 25 kts 74°
2026-05-04 15:56 48.68742 9.20897 1287 ft 109 kts 74°
2026-05-04 15:56 48.68990 9.22312 1406 ft 160 kts 74°
2026-05-04 15:56 48.69268 9.24002 2086 ft 171 kts 72°
2026-05-04 15:57 48.69580 9.25803 2860 ft 183 kts 71°
2026-05-04 15:57 48.69937 9.27688 3578 ft 189 kts 70°
2026-05-04 15:57 48.70321 9.29626 4326 ft 194 kts 71°
2026-05-04 15:57 48.70717 9.31617 5027 ft 203 kts 72°
2026-05-04 15:58 48.71133 9.33719 5631 ft 215 kts 75°
2026-05-04 15:58 48.71575 9.35980 6255 ft 234 kts 77°
2026-05-04 15:58 48.72048 9.38423 6995 ft 249 kts 76°
2026-05-04 15:58 48.72706 9.40922 7802 ft 265 kts 58°
2026-05-04 15:59 48.74056 9.42914 8631 ft 281 kts 31°
2026-05-04 15:59 48.75925 9.43921 9489 ft 292 kts
2026-05-04 15:59 48.77977 9.43881 10374 ft 300 kts 355°
2026-05-04 15:59 48.80057 9.43700 11232 ft 308 kts 354°
2026-05-04 16:00 48.82233 9.43503 12123 ft 317 kts 354°
2026-05-04 16:00 48.84458 9.43307 13032 ft 324 kts 354°
2026-05-04 16:00 48.86734 9.43117 13872 ft 332 kts 354°
2026-05-04 16:00 48.89065 9.42925 14658 ft 339 kts 354°
2026-05-04 16:01 48.91439 9.42728 15435 ft 345 kts 354°
2026-05-04 16:01 48.93864 9.42527 16178 ft 353 kts 354°
2026-05-04 16:01 48.96342 9.42324 16908 ft 360 kts 354°
2026-05-04 16:01 48.98869 9.42120 17642 ft 367 kts 354°
2026-05-04 16:02 49.01437 9.41910 18375 ft 373 kts 354°
2026-05-04 16:02 49.04052 9.41695 18930 ft 382 kts 354°
2026-05-04 16:02 49.09434 9.41212 20234 ft 392 kts 354°
2026-05-04 16:03 49.12178 9.40978 20911 ft 397 kts 354°
2026-05-04 16:03 49.14951 9.40748 21599 ft 401 kts 354°
2026-05-04 16:03 49.17781 9.40520 21902 ft 415 kts 354°
2026-05-04 16:03 49.20722 9.40282 21978 ft 432 kts 354°
2026-05-04 16:04 49.23769 9.40030 21983 ft 443 kts 354°
2026-05-04 16:04 49.29703 9.39555 20950 ft 433 kts 354°
2026-05-04 16:04 49.32696 9.39315 20270 ft 429 kts 354°
2026-05-04 16:05 49.35662 9.39069 19610 ft 425 kts 354°
2026-05-04 16:05 49.38602 9.38824 19024 ft 420 kts 354°
2026-05-04 16:05 49.44367 9.38347 17829 ft 410 kts 354°
2026-05-04 16:06 49.47203 9.38112 17172 ft 406 kts 354°
2026-05-04 16:06 49.54628 9.37491 15561 ft 396 kts 354°
2026-05-04 16:07 49.58209 9.37196 15227 ft 380 kts 354°
2026-05-04 16:07 49.65847 9.36559 13891 ft 365 kts 355°
2026-05-04 16:08 49.68372 9.36342 13127 ft 363 kts 355°
2026-05-04 16:08 49.75852 9.35704 11176 ft 357 kts 355°
2026-05-04 16:09 49.80804 9.35266 10991 ft 357 kts 355°
2026-05-04 16:09 49.85608 9.34801 10846 ft 332 kts 355°
2026-05-04 16:10 49.90049 9.34358 10515 ft 310 kts 355°
2026-05-04 16:11 49.96422 9.33732 9111 ft 302 kts 355°
2026-05-04 16:11 49.98508 9.33520 8605 ft 299 kts 355°
2026-05-04 16:12 50.04624 9.32885 7188 ft 290 kts 355°
2026-05-04 16:12 50.10585 9.32278 5669 ft 280 kts 352°
2026-05-04 16:13 50.14122 9.30300 4640 ft 264 kts 325°
2026-05-04 16:13 50.15876 9.25842 4190 ft 230 kts 285°
2026-05-04 16:14 50.16669 9.21120 3996 ft 217 kts 284°
2026-05-04 16:14 50.17403 9.16748 4013 ft 206 kts 283°
2026-05-04 16:15 50.16638 9.10669 4012 ft 203 kts 221°
2026-05-04 16:16 50.15340 9.06878 4013 ft 205 kts 253°
2026-05-04 16:16 50.13908 9.00647 4011 ft 205 kts 249°
2026-05-04 16:17 50.12933 8.96482 4007 ft 205 kts 250°
2026-05-04 16:18 50.11505 8.90387 4026 ft 184 kts 250°
2026-05-04 16:18 50.11074 8.88553 4006 ft 182 kts 250°
2026-05-04 16:19 50.09775 8.83029 3589 ft 174 kts 250°
2026-05-04 16:19 50.09014 8.79801 3195 ft 147 kts 252°
2026-05-04 16:20 50.08130 8.76056 2700 ft 134 kts 252°
2026-05-04 16:20 50.07492 8.73357 2349 ft 131 kts 253°
2026-05-04 16:21 50.06565 8.69399 1795 ft 131 kts 251°
2026-05-04 16:22 50.05924 8.66787 1450 ft 127 kts 254°
2026-05-04 16:22 50.05019 8.62973 994 ft 125 kts 252°
2026-05-04 16:23 50.04106 8.59101 522 ft 130 kts 252°
2026-05-04 16:24 50.03229 8.55402 355 ft 42 kts 249°
2026-05-04 16:25 50.03209 8.54673 347 ft 18 kts 282°
2026-05-04 16:26 50.03412 8.55133 358 ft 30 kts 70°
2026-05-04 16:26 50.03695 8.56316 362 ft 40 kts 69°
2026-05-04 16:27 50.03898 8.57167 363 ft 42 kts 69°
2026-05-04 16:28 50.04214 8.58486 361 ft 43 kts 70°
2026-05-04 16:28 50.04500 8.59472 361 ft 17 kts
2026-05-04 16:29 50.04703 8.59440 359 ft 20 kts 344°
2026-05-04 16:30 50.04795 8.59389 357 ft 4 kts 339°
2026-05-04 16:31 50.04813 8.59379 360 ft 0 kts 339°
2026-05-04 16:31 50.04819 8.59375 361 ft 5 kts 339°
2026-05-04 16:32 50.05073 8.59200 364 ft 19 kts 251°
2026-05-04 16:33 50.04998 8.59216 360 ft 0 kts 159°